Temperature
24 21 21 21 22 23 24 24 24 25 27 26 25 25 25 25 25 24 24 23 22 22 22 22 22 21 21 20 20 20 19 19 19 18 18 18 18 18 18 18 18 18 18 18
22 21 23 24 24 25 25 24 24 25 26 27 25 25 25 25 25 25 24 23 22 22 22 21 21 21 21 20 20 19 19 19 19 19 18 18 18 18 18 18 18 18 18 18
21 23 25 25 25 25 25 24 24 25 26 26 25 24 24 24 24 24 24 23 22 22 22 21 21 21 20 20 20 19 19 19 19 18 18 18 18 18 18 18 18 18 18 18
22 24 26 25 25 25 24 26 27 26 25 23 24 22 23 23 23 23 22 22 22 22 22 21 21 21 20 20 20 19 19 19 18 18 18 18 18 18 18 18 18 18 18 18
22 24 25 25 26 26 25 27 27 26 24 22 22 22 22 22 22 22 22 22 22 22 22 22 21 21 21 20 20 19 19 19 18 18 18 18 18 18 18 18 18 18 18 17
24 25 26 26 27 27 27 26 25 22 21 21 22 22 21 20 21 21 21 22 22 22 22 22 21 21 20 20 19 19 19 18 18 18 18 18 18 18 18 18 18 18 17 17
23 25 26 27 26 26 26 23 21 21 20 20 21 21 21 21 22 22 21 22 22 22 21 21 21 20 20 20 19 19 19 18 18 18 18 18 18 18 18 18 18 18 17 17
22 22 25 26 26 25 24 22 21 21 21 20 21 21 21 21 22 22 22 22 22 21 21 21 21 20 20 20 19 19 19 18 18 18 18 18 18 18 18 18 18 18 18 18
21 22 26 27 27 26 25 22 21 20 20 20 20 21 21 21 21 21 21 21 21 21 21 21 21 20 20 20 19 19 19 18 18 18 18 18 18 18 18 17 17 17 17 17
22 23 25 27 27 26 25 23 20 20 20 20 21 21 20 20 20 20 20 20 20 21 21 21 21 20 20 20 19 19 19 19 19 18 18 18 18 18 17 17 17 17 17 17
23 22 23 25 25 25 25 23 20 18 19 20 20 20 21 20 19 19 19 20 20 21 21 21 20 20 20 20 19 19 19 19 18 18 18 18 18 18 17 17 17 17 17 17
22 20 21 23 24 25 24 23 20 20 20 19 19 19 21 20 19 19 19 20 21 21 21 21 21 20 20 20 19 19 19 18 18 18 18 18 17 17 17 17 17 17 17 17
22 20 21 22 22 23 24 23 21 19 18 18 19 20 20 19 19 19 20 20 21 21 20 20 20 20 20 20 19 19 19 19 18 18 18 17 17 17 17 17 17 17 17 17
22 19 20 21 21 22 23 23 22 20 19 19 20 20 19 19 18 18 20 20 21 20 20 20 20 20 20 20 19 19 19 19 18 18 18 17 17 17 17 17 17 17 17 17
20 20 21 21 23 23 23 23 23 22 20 20 19 19 19 18 18 19 19 20 20 20 19 20 20 20 19 19 19 19 19 19 18 18 18 17 17 17 17 17 17 17 17 17
18 19 20 21 23 23 22 23 23 22 21 20 20 19 19 18 18 18 19 19 19 19 19 19 19 19 19 19 19 19 19 18 18 18 18 18 17 17 17 17 17 17 17 17
17 18 18 19 21 22 20 21 21 21 20 20 19 18 18 17 17 17 18 19 19 19 19 19 19 19 19 19 19 19 19 18 18 18 18 18 18 17 17 17 17 17 17 17
17 17 16 17 20 20 19 20 21 20 19 19 18 17 17 17 17 18 18 18 18 18 18 18 19 19 19 19 19 19 19 18 18 18 18 18 18 18 17 17 17 17 17 17
16 17 16 16 18 19 20 20 20 19 17 18 17 17 17 17 17 17 18 18 18 18 18 18 18 18 18 18 18 18 18 18 18 18 18 18 18 17 17 17 17 17 17 17
16 16 16 16 18 18 18 19 20 19 17 17 17 16 16 17 16 15 16 17 17 17 17 17 18 18 18 18 18 18 18 18 18 18 18 18 17 17 17 17 17 17 17 16
16 16 16 16 17 17 17 18 19 18 16 16 16 16 16 15 15 15 16 16 16 16 17 17 17 17 17 18 18 18 18 18 18 18 18 18 17 17 17 17 17 17 17 16
15 15 15 15 16 16 16 17 16 15 15 16 16 16 15 15 15 15 15 15 16 16 16 16 16 16 17 17 17 17 17 17 17 17 18 17 17 17 17 17 17 17 16 16
14 14 14 14 14 14 15 15 15 16 15 15 15 15 15 15 14 14 14 14 14 15 15 15 16 16 16 16 16 16 17 17 17 17 17 17 17 17 17 17 16 16 16 16
14 14 13 13 13 14 14 15 15 15 15 15 15 15 15 14 14 13 13 13 13 14 14 14 15 15 15 15 15 16 16 16 17 17 17 16 17 17 16 16 16 16 16 16
14 14 13 13 13 13 13 14 14 14 14 14 14 14 14 14 13 13 13 13 13 13 13 13 14 14 14 14 15 15 15 16 16 16 16 16 16 16 16 16 15 15 15 15
13 13 13 13 13 12 12 13 13 13 13 13 13 13 13 13 13 12 12 12 12 12 12 12 12 13 13 13 14 14 14 15 15 15 15 15 15 15 15 15 15 14 15 15
Wind_Speed
5 5 8 10 10 8 7 8 10 10 8 2 4 6 7 6 8 11 12 14 16 15 13 13 15 16 15 14 14 14 14 13 11 9 9 8 8 7 7 7 10 12 12 12
3 10 13 9 8 8 10 12 11 9 7 2 4 6 5 6 7 11 14 14 15 13 11 14 14 15 16 16 16 15 14 13 12 9 7 6 7 6 6 6 8 11 11 11
12 8 9 11 11 11 13 12 11 8 6 3 2 4 3 3 2 4 8 12 15 18 17 16 15 15 15 16 17 16 15 14 12 10 7 6 5 4 4 5 6 7 11 11
9 12 11 11 13 13 12 12 9 6 2 3 1 2 7 2 1 4 6 8 12 14 16 16 15 15 16 15 14 13 14 14 12 12 11 11 8 7 6 6 6 7 9 9
9 9 12 14 17 14 12 10 6 3 3 1 3 1 6 1 1 4 6 9 10 12 15 16 16 16 15 14 13 12 13 13 12 12 13 12 8 6 5 6 7 7 6 7
11 9 9 13 14 11 9 4 2 4 5 1 3 2 6 2 4 4 3 5 8 11 13 12 11 10 10 11 11 12 13 12 12 13 13 12 12 10 9 8 8 7 5 5
9 12 10 8 8 7 4 4 3 4 4 4 3 2 6 5 4 4 5 6 7 9 11 12 12 12 12 13 14 13 14 13 12 13 13 12 12 13 13 10 10 8 6 6
7 8 8 7 10 8 6 10 9 6 5 4 2 2 6 6 3 1 2 5 7 7 9 12 13 13 13 13 13 14 14 13 13 13 12 11 12 10 9 10 9 9 8 8
7 8 7 8 8 10 6 6 10 8 4 1 3 4 5 3 4 5 4 4 5 8 10 11 12 12 12 13 13 14 14 12 12 12 11 11 12 11 10 9 8 7 7 8
9 5 7 6 4 6 10 9 7 7 6 2 2 3 4 3 0 3 3 2 3 5 7 10 11 12 11 12 11 12 12 12 11 12 11 11 11 11 10 9 10 9 9 9
9 6 6 2 4 7 5 5 6 6 7 6 3 5 4 5 4 3 2 3 4 4 6 8 9 10 10 11 11 11 11 10 10 10 10 10 10 10 10 10 10 10 9 10
6 6 5 5 3 5 7 7 8 7 4 6 5 4 3 4 4 4 3 4 3 4 5 7 8 8 10 11 11 11 11 11 10 10 9 9 9 10 11 11 10 10 10 10
5 6 3 4 5 4 4 3 5 7 6 5 5 3 1 3 3 1 3 3 3 4 4 5 7 8 10 11 12 11 11 11 10 10 9 9 9 10 11 11 10 10 10 10
5 5 7 9 7 3 2 2 4 7 5 4 5 5 1 3 3 1 1 2 3 3 4 5 6 7 8 10 11 12 11 11 11 10 10 10 11 11 11 10 9 9 10 10
5 4 3 4 5 4 3 2 3 4 6 7 6 7 4 4 4 3 2 2 3 2 3 4 5 5 6 8 9 10 10 10 11 11 11 10 10 10 10 10 10 9 10 11
4 4 3 2 3 6 5 4 4 5 6 8 9 4 2 3 4 5 3 4 4 2 2 4 5 5 6 7 8 9 10 10 11 12 11 10 10 10 10 10 10 10 9 9
3 4 4 1 1 5 2 1 3 5 4 8 6 4 5 5 4 4 4 5 5 3 2 1 3 5 6 6 7 8 9 9 10 11 11 10 11 11 11 11 10 10 10 9
4 4 4 3 5 3 4 0 7 9 6 7 8 6 7 6 4 4 4 6 5 3 3 2 1 1 2 3 4 5 6 8 10 10 11 11 11 11 10 10 11 10 9 9
5 6 4 4 3 1 1 2 3 7 5 5 10 8 7 7 7 6 6 6 4 2 1 1 1 1 1 1 3 5 5 6 8 9 10 11 12 11 11 11 11 9 9 8
5 6 5 4 4 3 3 3 1 9 4 2 6 6 5 5 4 1 4 5 5 5 3 3 3 2 2 1 2 5 5 5 6 7 8 8 10 11 12 11 10 8 8 9
4 4 4 4 3 1 4 5 2 5 4 1 3 4 5 3 4 2 4 5 6 6 6 5 4 2 1 1 1 3 4 5 6 5 6 7 8 10 10 10 9 8 8 8
3 3 3 4 3 3 4 3 3 4 4 5 5 6 8 7 6 6 6 6 7 7 8 7 5 4 3 2 2 2 2 3 3 4 4 5 6 7 7 7 8 8 9 9
2 2 3 3 3 0 3 5 5 6 7 6 5 6 8 8 7 6 6 6 7 8 7 7 6 6 5 4 3 2 1 0 2 4 5 5 6 6 6 7 7 6 7 7
3 3 4 5 4 5 6 7 7 8 8 8 7 7 8 9 8 7 7 7 7 8 8 7 7 7 6 6 5 3 2 0 2 3 4 4 5 5 5 5 5 5 6 6
1 2 4 5 5 6 6 6 7 8 9 10 9 9 9 10 10 8 7 7 7 7 7 8 8 8 7 6 6 6 5 3 2 3 3 4 4 5 5 5 4 4 2 4
2 1 4 4 5 5 4 3 7 8 8 9 10 10 9 9 9 9 8 7 7 7 8 8 9 9 8 8 8 8 7 5 4 4 4 4 4 5 6 6 6 9 6 7
Wind_Direction
215 172 215 221 210 212 243 266 274 277 281 278 246 240 238 205 175 171 171 171 177 184 179 171 169 165 162 164 167 169 167 169 165 163 162 159 161 163 162 166 165 163 163 159
236 234 227 219 226 237 250 260 269 278 277 254 240 242 230 198 189 177 174 173 172 164 162 167 165 166 169 172 172 171 173 172 173 168 165 160 152 161 164 165 164 163 163 163
212 233 217 223 235 242 251 243 244 243 283 325 61 317 277 244 131 154 166 167 167 166 167 169 170 172 172 176 176 177 175 173 171 162 150 142 130 128 144 160 167 171 170 170
234 239 233 229 236 230 252 246 236 232 222 290 62 255 289 265 109 159 160 159 166 166 169 171 174 174 178 179 176 175 175 173 170 165 163 162 166 168 174 170 171 173 175 175
234 218 219 230 236 229 234 240 229 216 171 78 5 126 284 346 201 214 194 173 169 170 170 174 178 177 175 174 173 173 170 172 173 173 171 169 171 171 155 157 167 175 179 180
244 252 225 225 235 230 230 243 356 43 78 52 270 174 270 255 219 230 231 181 170 169 168 169 168 163 164 167 172 173 174 178 178 176 175 176 173 169 163 169 177 182 183 186
262 261 252 235 235 252 213 128 37 358 15 246 271 179 255 266 253 207 201 180 169 161 161 159 159 164 169 172 177 178 177 180 181 180 181 181 178 175 179 180 183 183 184 190
222 258 243 220 204 210 199 149 161 187 210 260 317 241 266 284 301 357 148 149 155 158 165 167 168 173 177 178 177 177 180 182 184 185 185 182 179 180 184 184 182 186 191 194
201 241 253 231 207 181 183 176 168 141 150 136 284 290 310 354 32 40 71 119 161 178 178 171 172 176 177 178 179 178 180 182 186 187 183 182 183 182 183 183 183 185 190 191
185 239 268 245 206 198 172 160 108 122 148 199 267 272 242 258 93 49 50 140 185 178 173 170 172 179 179 178 176 175 177 183 186 186 187 189 185 184 181 180 187 188 190 189
183 200 282 323 186 195 149 126 119 127 147 153 198 261 226 196 173 162 189 203 177 182 181 175 178 178 175 173 173 176 178 180 183 186 189 186 184 181 179 183 190 190 190 188
184 164 231 256 259 175 146 154 140 143 173 157 160 248 285 166 162 165 183 203 185 176 182 178 173 174 172 173 176 179 181 183 187 185 186 188 184 181 182 185 189 187 186 185
161 140 163 324 339 21 94 123 134 132 126 142 148 227 341 104 101 159 185 193 178 159 168 173 171 178 181 179 179 181 182 183 183 180 181 185 186 185 185 185 184 182 181 180
137 125 161 188 205 174 119 99 118 118 136 163 176 174 165 117 121 184 188 194 158 146 169 171 177 183 187 186 182 181 183 180 178 177 178 185 189 186 185 184 182 182 181 180
102 118 140 166 160 122 111 100 97 123 154 154 167 152 174 163 150 162 156 116 103 133 167 169 176 179 185 187 186 184 183 180 178 176 180 189 189 183 181 183 184 182 182 184
68 110 101 73 106 91 70 58 78 91 116 121 120 115 143 132 99 87 79 86 79 84 165 166 167 170 185 188 185 185 188 184 178 182 185 184 183 183 183 184 183 182 183 182
54 95 101 156 75 78 61 29 90 91 107 129 141 167 137 108 96 102 87 86 73 44 33 135 178 184 190 194 186 185 190 183 181 185 186 183 184 187 188 187 184 185 185 183
117 94 105 98 73 143 236 323 110 100 82 100 107 107 108 113 104 82 83 87 74 68 51 26 351 215 201 186 178 178 178 180 184 187 188 189 190 192 189 185 188 190 186 186
138 122 104 104 119 136 320 11 113 113 69 81 110 108 110 114 86 57 47 65 62 41 38 27 336 253 150 145 172 169 167 177 183 190 195 194 192 191 189 191 192 190 186 188
69 97 109 114 123 178 248 314 75 103 83 18 104 114 121 102 89 62 26 37 39 27 31 30 7 11 43 5 162 161 170 177 192 198 198 194 191 188 189 192 191 185 184 189
65 67 110 125 132 213 288 302 27 118 184 179 102 106 98 92 132 123 42 35 31 26 24 27 22 21 22 6 123 152 173 197 203 196 186 185 191 192 190 188 186 182 185 185
125 124 129 125 135 227 318 43 103 152 142 106 94 97 100 102 93 76 56 38 32 28 26 24 25 29 28 47 90 129 185 223 199 180 177 180 182 186 185 179 184 182 181 183
81 146 142 134 146 80 30 91 103 119 113 102 99 98 104 95 83 73 61 50 42 36 28 22 32 38 35 40 57 76 339 287 174 171 179 185 181 182 176 174 179 176 177 181
14 54 97 90 85 73 65 74 72 83 94 98 102 99 99 98 90 76 62 53 45 40 33 30 34 40 35 31 35 19 354 16 144 168 178 174 168 167 162 158 168 172 177 182
324 55 82 98 121 86 65 71 82 86 89 90 87 88 93 96 90 82 69 57 49 44 38 39 39 38 33 29 30 20 16 40 94 125 140 142 139 137 130 113 105 136 152 182
344 139 141 168 177 141 139 113 99 95 95 98 98 89 80 88 92 85 73 62 57 51 44 42 38 34 32 35 32 22 17 38 72 94 102 113 118 119 121 120 102 70 82 86
Height
1454 1461 1467 1464 1463 1466 1466 1469 1470 1460 1448 1451 1454 1453 1450 1449 1451 1454 1456 1459 1462 1466 1469 1473 1476 1480 1484 1489 1492 1496 1500 1504 1508 1512 1516 1519 1523 1527 1530 1533 1536 1540 1542 1545
1458 1460 1453 1454 1456 1459 1463 1468 1467 1458 1447 1449 1453 1453 1447 1447 1448 1449 1452 1455 1458 1462 1468 1471 1475 1478 1481 1485 1489 1492 1497 1500 1505 1509 1513 1517 1521 1525 1528 1531 1534 1538 1541 1543
1457 1451 1447 1451 1455 1459 1460 1463 1461 1459 1451 1448 1453 1459 1453 1448 1447 1449 1451 1452 1456 1458 1463 1467 1472 1475 1479 1482 1485 1489 1494 1497 1502 1506 1511 1516 1520 1523 1526 1528 1531 1535 1538 1541
1449 1443 1445 1449 1451 1453 1461 1448 1448 1450 1459 1468 1461 1479 1460 1453 1450 1449 1451 1453 1455 1457 1460 1464 1468 1472 1475 1479 1483 1486 1491 1494 1499 1504 1508 1511 1515 1517 1521 1525 1528 1532 1536 1539
1445 1438 1442 1445 1442 1443 1447 1439 1443 1447 1457 1469 1468 1477 1470 1456 1456 1452 1450 1451 1453 1455 1458 1462 1465 1469 1472 1476 1480 1484 1487 1491 1496 1500 1504 1508 1512 1516 1520 1523 1527 1530 1533 1536
1437 1432 1434 1434 1432 1433 1434 1439 1445 1455 1466 1483 1474 1477 1475 1463 1457 1452 1449 1449 1452 1455 1457 1460 1465 1468 1471 1475 1478 1482 1485 1489 1493 1497 1501 1505 1509 1513 1516 1520 1523 1527 1530 1533
1440 1432 1427 1426 1432 1431 1436 1456 1478 1482 1491 1488 1471 1473 1472 1455 1449 1447 1446 1447 1450 1453 1456 1459 1463 1467 1470 1472 1476 1479 1483 1486 1490 1494 1498 1501 1505 1509 1512 1516 1520 1523 1526 1529
1450 1446 1426 1422 1427 1434 1437 1451 1478 1490 1493 1487 1473 1475 1464 1449 1445 1444 1445 1448 1450 1453 1455 1458 1461 1465 1468 1470 1473 1477 1480 1483 1487 1491 1494 1498 1502 1506 1509 1513 1516 1520 1523 1526
1443 1441 1418 1414 1414 1422 1435 1445 1448 1470 1477 1485 1481 1469 1457 1447 1446 1447 1448 1450 1452 1454 1455 1457 1460 1464 1466 1468 1471 1474 1478 1481 1485 1488 1491 1495 1498 1502 1506 1509 1513 1516 1520 1523
1428 1436 1420 1412 1412 1415 1421 1432 1453 1469 1485 1491 1481 1475 1471 1457 1452 1451 1451 1452 1453 1454 1454 1457 1459 1462 1464 1467 1470 1473 1476 1479 1482 1485 1488 1491 1495 1498 1502 1506 1509 1513 1516 1520
1419 1434 1427 1419 1422 1424 1425 1434 1447 1463 1468 1484 1491 1481 1453 1452 1451 1452 1452 1452 1452 1453 1454 1456 1458 1461 1464 1466 1469 1472 1475 1477 1480 1483 1486 1489 1492 1495 1499 1502 1506 1509 1513 1516
1415 1429 1437 1426 1414 1410 1418 1428 1442 1461 1468 1470 1479 1477 1447 1448 1448 1449 1449 1450 1450 1452 1453 1455 1458 1460 1463 1465 1468 1470 1472 1475 1477 1480 1483 1486 1489 1493 1496 1499 1503 1506 1509 1513
1413 1428 1443 1441 1432 1420 1422 1425 1432 1445 1458 1469 1477 1472 1448 1447 1448 1448 1448 1448 1450 1451 1454 1456 1457 1459 1462 1464 1466 1468 1470 1472 1476 1479 1481 1484 1486 1490 1492 1496 1500 1503 1506 1509
1405 1424 1435 1445 1440 1428 1427 1427 1429 1441 1459 1463 1462 1460 1453 1450 1451 1450 1449 1450 1450 1451 1453 1455 1457 1458 1461 1463 1464 1466 1468 1471 1473 1476 1479 1481 1484 1487 1490 1494 1497 1500 1503 1506
1406 1423 1422 1422 1419 1420 1424 1426 1428 1434 1442 1453 1455 1455 1453 1451 1450 1450 1449 1449 1448 1450 1452 1453 1455 1457 1459 1461 1463 1464 1466 1469 1471 1474 1477 1480 1483 1486 1489 1492 1494 1497 1500 1503
1411 1421 1424 1425 1419 1420 1427 1427 1428 1431 1436 1443 1447 1453 1449 1450 1450 1449 1449 1449 1448 1450 1451 1452 1454 1456 1457 1459 1460 1462 1464 1467 1469 1471 1474 1477 1480 1483 1486 1489 1492 1495 1498 1500
1418 1424 1434 1437 1426 1427 1441 1434 1432 1435 1435 1439 1449 1451 1448 1450 1451 1451 1450 1450 1451 1451 1451 1452 1453 1454 1455 1457 1458 1460 1462 1465 1467 1469 1471 1474 1477 1480 1483 1486 1489 1491 1494 1497
1420 1427 1437 1441 1438 1452 1444 1428 1429 1435 1439 1438 1442 1446 1447 1449 1451 1451 1451 1451 1452 1452 1452 1452 1452 1452 1453 1455 1455 1457 1460 1462 1464 1466 1469 1471 1474 1477 1480 1482 1485 1488 1491 1494
1415 1424 1436 1446 1449 1447 1438 1432 1432 1437 1447 1442 1443 1446 1448 1449 1449 1452 1453 1452 1454 1454 1452 1451 1451 1451 1451 1452 1453 1455 1457 1459 1461 1463 1465 1468 1471 1473 1476 1479 1482 1485 1488 1491
1417 1421 1435 1445 1449 1454 1445 1433 1430 1435 1452 1447 1444 1446 1447 1448 1454 1457 1455 1453 1453 1453 1452 1450 1450 1449 1449 1449 1451 1453 1454 1456 1458 1460 1462 1465 1467 1470 1472 1475 1479 1481 1484 1487
1428 1432 1438 1444 1450 1448 1439 1433 1431 1448 1453 1447 1446 1447 1448 1450 1453 1455 1454 1454 1452 1451 1450 1449 1448 1448 1447 1448 1449 1450 1451 1452 1454 1457 1459 1461 1464 1466 1469 1472 1475 1478 1481 1484
1434 1438 1441 1445 1452 1453 1438 1436 1440 1445 1444 1445 1447 1448 1448 1451 1452 1453 1453 1452 1451 1450 1449 1447 1446 1446 1446 1446 1446 1447 1448 1450 1452 1454 1456 1458 1460 1463 1465 1468 1471 1474 1477 1479
1433 1435 1438 1442 1447 1443 1439 1439 1441 1441 1443 1445 1447 1449 1449 1450 1451 1453 1453 1452 1451 1450 1448 1447 1445 1445 1445 1445 1445 1445 1446 1448 1450 1451 1453 1454 1457 1459 1462 1464 1467 1470 1472 1474
1433 1431 1436 1441 1444 1443 1442 1442 1443 1443 1444 1446 1448 1449 1450 1451 1452 1453 1453 1452 1451 1450 1448 1447 1446 1444 1444 1444 1444 1445 1445 1446 1447 1448 1449 1451 1453 1456 1458 1461 1463 1466 1468 1470
1435 1433 1437 1441 1444 1444 1445 1445 1445 1446 1448 1448 1450 1451 1451 1451 1453 1454 1454 1453 1453 1452 1450 1449 1447 1446 1445 1444 1444 1444 1444 1444 1445 1446 1447 1448 1450 1452 1454 1457 1459 1462 1465 1467
1435 1436 1438 1441 1441 1443 1446 1447 1447 1448 1449 1450 1451 1452 1453 1453 1454 1455 1455 1455 1454 1454 1452 1451 1449 1448 1447 1446 1444 1444 1444 1444 1444 1444 1445 1446 1448 1450 1452 1454 1457 1460 1462 1465